Starlink 31767

operational
NORAD ID: 59605 Int'l Des: 2024-080 Owner: SPXS Country: US Constellation: starlink
LEOCIRCULAR

关于 Starlink 31767

正在加载描述...

实时位置

正在加载3D地球...

即将过境

高度历史

Altitude vs Time

uPlot chart will show altitude changes over time

两行轨道根数

1 59605U 24080E 25352.43465801 -.00002598 00000-0 -84918-4 0 9997
2 59605 43.0000 136.9753 0000559 282.5154 77.5635 15.27588060 92101
Epoch: Dec 18, 2025 • Age: 12 hours

当前状态

高度 495.3 km
速度 7.62 km/s
星下点 -41.40°S, 3.63°W
发射日期 Apr 28, 2024
运行时间 1.6 years
类型 internet

技术详情

分类 Payload
质量 730.00 kg
干质量 700.00 kg
总质量 730.00 kg
长度 0.30 m
直径 4.10 m
跨度 29.00 m
形状 Box + pan
制造商 SPXS
平台类型 Starlink V2M
阶段状态 In Orbit
所有者/国家 SPXS/US

大型星座

Loading constellations...